GLENN Weather Reports


time (UTC)temp
C
wind
direction
speed
KPH
gust
KPH
rain 1hr
cm
rain 24hr
cm
rain mn
cm
humidity
%
barometer
mb
20260506084521 -1 118 3.2 4.8 0.00 0.00 0.00 68 1019.2
20260506083023 -1 109 4.8 6.4 0.00 0.00 0.00 66 1019.1
20260506081530 0 98 3.2 4.8 0.00 0.00 0.00 66 1019.1
20260506073020 -1 111 1.6 4.8 0.00 0.00 0.00 66 1019.3
20260506071525 0 67 0.0 4.8 0.00 0.00 0.00 67 1019.3
20260506061505 0 134 3.2 6.4 0.00 0.00 0.00 65 1019.2
20260506044510 0 69 0.0 3.2 0.00 0.00 0.00 58 1019.4
20260506043015 1 83 3.2 4.8 0.00 0.00 0.00 57 1019.3
20260506041518 1 18 0.0 6.4 0.00 0.00 0.00 53 1019.2
20260506040025 2 85 1.6 8.0 0.00 0.00 0.00 51 1019.2
20260506034517 2 309 4.8 12.9 0.00 0.00 0.00 49 1019.0
20260506033011 2 250 4.8 11.3 0.00 0.00 0.00 56 1018.8
20260506031515 2 280 1.6 14.5 0.00 0.00 0.00 49 1018.8
20260506030033 2 84 4.8 16.1 0.00 0.00 0.00 46 1018.4
20260506024550 3 33 3.2 12.9 0.00 0.00 0.00 43 1018.1
20260506023013 3 26 3.2 6.4 0.00 0.00 0.00 45 1017.9
20260506021516 4 91 4.8 12.9 0.00 0.00 0.00 44 1017.7
20260506020016 5 331 0.0 6.4 0.00 0.00 0.00 43 1017.5
20260506014524 5 74 0.0 12.9 0.00 0.00 0.00 46 1017.1
20260506013037 5 360 4.8 22.5 0.00 0.00 0.00 45 1017.0
20260506011510 4 31 1.6 11.3 0.00 0.00 0.00 49 1017.0
20260506010021 4 352 4.8 11.3 0.00 0.00 0.00 48 1016.7
20260506004520 5 40 6.4 17.7 0.00 0.00 0.00 47 1016.6
20260506003033 5 134 3.2 22.5 0.00 0.00 0.00 50 1016.6
20260506001527 5 48 6.4 17.7 0.00 0.00 0.00 48 1016.3
20260506000013 5 80 3.2 14.5 0.00 0.00 0.00 47 1016.3
20260505234517 6 69 9.7 17.7 0.00 0.00 0.00 44 1016.2
20260505233021 7 39 1.6 6.4 0.00 0.00 0.00 44 1016.1
20260505231525 7 67 0.0 6.4 0.00 0.00 0.00 43 1016.0
20260505230041 7 342 8.0 17.7 0.00 0.00 0.00 37 1015.9
20260505224515 7 352 4.8 24.1 0.00 0.00 0.00 39 1015.9
20260505223020 8 267 4.8 24.1 0.00 0.00 0.00 36 1015.8
20260505221528 8 298 12.9 17.7 0.00 0.00 0.00 37 1015.7
20260505220026 8 21 6.4 19.3 0.00 0.00 0.00 40 1015.9
20260505214527 7 326 9.7 22.5 0.00 0.00 0.00 41 1015.8
20260505213021 7 307 9.7 35.4 0.00 0.00 0.00 40 1015.6
20260505211505 8 287 6.4 16.1 0.00 0.00 0.00 42 1015.9
20260505210006 8 321 4.8 11.3 0.00 0.00 0.00 40 1016.1
20260505204511 8 39 1.6 14.5 0.00 0.00 0.00 43 1016.1
20260505203014 8 340 3.2 14.5 0.00 0.00 0.00 40 1016.1
20260505201514 8 341 8.0 12.9 0.00 0.00 0.00 45 1016.3
20260505200013 7 79 4.8 16.1 0.00 0.00 0.00 44 1016.4
20260505194511 6 22 4.8 17.7 0.00 0.00 0.00 49 1016.4
20260505193013 7 52 9.7 17.7 0.00 0.00 0.00 47 1016.6
20260505191518 7 345 4.8 16.1 0.00 0.00 0.00 46 1016.6
20260505190014 6 342 6.4 14.5 0.00 0.00 0.00 46 1016.6
20260505184508 7 352 4.8 9.7 0.00 0.00 0.00 49 1016.6
20260505183010 7 360 3.2 6.4 0.00 0.00 0.00 50 1016.8
20260505181518 6 325 4.8 12.9 0.00 0.00 0.00 53 1016.8
20260505180018 5 232 8.0 19.3 0.00 0.00 0.00 51 1016.8
20260505174518 6 344 3.2 12.9 0.00 0.00 0.00 52 1016.7
20260505173032 5 19 0.0 12.9 0.00 0.00 0.00 49 1016.6
20260505171513 6 231 6.4 11.3 0.00 0.00 0.00 50 1016.6
20260505170024 5 236 4.8 9.7 0.00 0.00 0.00 50 1016.7
20260505164543 5 173 3.2 8.0 0.00 0.00 0.00 50 1016.8
20260505163021 5 227 1.6 6.4 0.00 0.00 0.00 54 1016.8
20260505161511 5 212 3.2 8.0 0.00 0.00 0.00 57 1016.7
20260505153026 3 272 0.0 6.4 0.00 0.00 0.00 58 1016.8
20260505151522 3 290 3.2 6.4 0.00 0.00 0.00 56 1016.9
20260505124528 0 326 0.0 6.4 0.00 0.00 0.00 71 1016.1
20260505123017 0 249 1.6 3.2 0.00 0.00 0.00 71 1015.8
20260505121506 0 227 4.8 8.0 0.00 0.00 0.00 70 1015.7
20260505120008 0 82 0.0 3.2 0.00 0.00 0.00 67 1015.6
20260505114527 0 88 3.2 4.8 0.00 0.00 0.00 66 1015.5
20260505113016 0 82 3.2 4.8 0.00 0.00 0.00 67 1015.4
20260505111518 1 135 4.8 6.4 0.00 0.00 0.00 64 1015.5
20260505101521 2 91 3.2 6.4 0.00 0.00 0.00 61 1015.9
20260505100029 2 88 3.2 4.8 0.00 0.00 0.00 60 1015.9
20260505094506 2 90 3.2 6.4 0.00 0.00 0.00 61 1015.8
20260505093010 2 80 3.2 4.8 0.00 0.00 0.00 63 1015.8
20260505091516 2 113 1.6 4.8 0.00 0.00 0.00 63 1015.8
20260505090031 2 99 1.6 4.8 0.00 0.00 0.00 63 1016.1